Location: Barruelo
(41.2448°N, 3.8231°W)
Time: 07:02:38
(UTC+00:00)

SOZ - Pass Details

Date: 23 March 2026
Orbit: 299 x 12047 km, 52.0° (Epoch: 14 April)

Event Time Altitude Azimuth Distance (km) Brightness Sun altitude
Rises 22:57:14 0° 169° (S) 17,280 12.0 -43.6°
Enters shadow 23:11:04 - 165° (SSE) 16,388 11.8 -44.9°
Exits shadow 00:04:20 27° 129° (SE) 9,338 10.6 -47.6°
Maximum altitude 00:08:48 28° 122° (ESE) 8,560 10.4 -47.7°
Drops below altitude 10° 00:27:03 10° 75° (ENE) 6,311 10.2 -47.8°
Sets 00:31:04 0° 63° (ENE) 6,365 10.5 -47.7°
